| time (UTC) | temp C | wind direction | speed KPH | gust KPH | rain 1hr cm | rain 24hr cm | rain mn cm | humidity % | barometer mb |
| 20260510153305 | 17 | 52 | 11.3 | 25.7 | 0.00 | 0.00 | 0.00 | 59 | 1010.6 |
| 20260510152235 | 17 | 5 | 16.1 | 25.7 | 0.00 | 0.00 | 0.00 | 57 | 1010.6 |
| 20260510151251 | 17 | 341 | 11.3 | 30.6 | 0.00 | 0.00 | 0.00 | 55 | 1010.6 |
| 20260510150231 | 17 | 30 | 3.2 | 20.9 | 0.00 | 0.00 | 0.00 | 56 | 1010.9 |
| 20260510145247 | 17 | 334 | 8.0 | 25.7 | 0.00 | 0.00 | 0.00 | 54 | 1010.9 |
| 20260510144248 | 18 | 71 | 11.3 | 30.6 | 0.00 | 0.00 | 0.00 | 53 | 1010.8 |
| 20260510143240 | 18 | 60 | 11.3 | 27.4 | 0.00 | 0.00 | 0.00 | 52 | 1011.0 |
| 20260510142240 | 18 | 17 | 14.5 | 22.5 | 0.00 | 0.00 | 0.00 | 51 | 1011.0 |
| 20260510141238 | 18 | 65 | 9.7 | 29.0 | 0.00 | 0.00 | 0.00 | 51 | 1011.2 |
| 20260510140259 | 18 | 355 | 4.8 | 27.4 | 0.00 | 0.00 | 0.00 | 53 | 1011.4 |
| 20260510135249 | 18 | 79 | 12.9 | 25.7 | 0.00 | 0.00 | 0.00 | 52 | 1011.4 |
| 20260510134232 | 18 | 36 | 12.9 | 22.5 | 0.00 | 0.00 | 0.00 | 53 | 1011.4 |
| 20260510133241 | 18 | 27 | 8.0 | 19.3 | 0.00 | 0.00 | 0.00 | 53 | 1011.4 |
| 20260510132232 | 17 | 41 | 11.3 | 19.3 | 0.00 | 0.00 | 0.00 | 52 | 1011.4 |
| 20260510131248 | 17 | 40 | 11.3 | 27.4 | 0.00 | 0.00 | 0.00 | 54 | 1011.5 |
| 20260510130240 | 18 | 59 | 11.3 | 24.1 | 0.00 | 0.00 | 0.00 | 52 | 1011.6 |
| 20260510125232 | 18 | 26 | 9.7 | 25.7 | 0.00 | 0.00 | 0.00 | 50 | 1011.6 |
| 20260510124245 | 18 | 49 | 8.0 | 24.1 | 0.00 | 0.00 | 0.00 | 52 | 1011.6 |
| 20260510123246 | 17 | 71 | 9.7 | 25.7 | 0.00 | 0.00 | 0.00 | 50 | 1011.7 |
| 20260510122240 | 17 | 57 | 4.8 | 20.9 | 0.00 | 0.00 | 0.00 | 50 | 1011.7 |
| 20260510121300 | 17 | 55 | 14.5 | 25.7 | 0.00 | 0.00 | 0.00 | 50 | 1011.8 |
| 20260510120241 | 17 | 65 | 6.4 | 19.3 | 0.00 | 0.00 | 0.00 | 51 | 1012.0 |
| 20260510115233 | 17 | 40 | 11.3 | 24.1 | 0.00 | 0.00 | 0.00 | 51 | 1012.0 |
| 20260510114232 | 17 | 51 | 14.5 | 30.6 | 0.00 | 0.00 | 0.00 | 50 | 1012.0 |
| 20260510113246 | 17 | 32 | 11.3 | 24.1 | 0.00 | 0.00 | 0.00 | 52 | 1012.2 |
| 20260510112257 | 17 | 65 | 9.7 | 20.9 | 0.00 | 0.00 | 0.00 | 53 | 1012.2 |
| 20260510111248 | 17 | 59 | 14.5 | 24.1 | 0.00 | 0.00 | 0.00 | 55 | 1012.5 |
| 20260510110240 | 17 | 88 | 11.3 | 24.1 | 0.00 | 0.00 | 0.00 | 53 | 1012.5 |
| 20260510105233 | 17 | 28 | 12.9 | 24.1 | 0.00 | 0.00 | 0.00 | 56 | 1012.5 |
| 20260510104248 | 16 | 17 | 11.3 | 30.6 | 0.00 | 0.00 | 0.00 | 56 | 1012.6 |
| 20260510103242 | 16 | 46 | 12.9 | 24.1 | 0.00 | 0.00 | 0.00 | 56 | 1012.5 |
| 20260510102243 | 16 | 68 | 16.1 | 27.4 | 0.00 | 0.00 | 0.00 | 55 | 1012.5 |
| 20260510101232 | 16 | 30 | 14.5 | 25.7 | 0.00 | 0.00 | 0.00 | 57 | 1012.6 |
| 20260510100244 | 16 | 45 | 17.7 | 25.7 | 0.00 | 0.00 | 0.00 | 58 | 1012.5 |
| 20260510095257 | 15 | 36 | 11.3 | 33.8 | 0.00 | 0.00 | 0.00 | 60 | 1012.5 |
| 20260510094232 | 15 | 32 | 16.1 | 27.4 | 0.00 | 0.00 | 0.00 | 60 | 1012.6 |
| 20260510093302 | 15 | 28 | 14.5 | 22.5 | 0.00 | 0.00 | 0.00 | 62 | 1012.7 |
| 20260510092235 | 14 | 53 | 12.9 | 24.1 | 0.00 | 0.00 | 0.00 | 62 | 1012.6 |
| 20260510091242 | 14 | 350 | 14.5 | 22.5 | 0.00 | 0.00 | 0.00 | 63 | 1012.6 |
| 20260510090234 | 13 | 19 | 11.3 | 29.0 | 0.00 | 0.00 | 0.00 | 64 | 1012.6 |
| 20260510085308 | 13 | 5 | 12.9 | 27.4 | 0.00 | 0.00 | 0.00 | 65 | 1012.6 |
| 20260510084304 | 13 | 5 | 9.7 | 30.6 | 0.00 | 0.00 | 0.00 | 66 | 1012.7 |
| 20260510083243 | 13 | 32 | 16.1 | 27.4 | 0.00 | 0.00 | 0.00 | 67 | 1012.5 |
| 20260510082235 | 12 | 57 | 6.4 | 25.7 | 0.00 | 0.00 | 0.00 | 68 | 1012.5 |
| 20260510081253 | 12 | 34 | 12.9 | 27.4 | 0.00 | 0.00 | 0.00 | 69 | 1012.4 |
| 20260510080307 | 12 | 63 | 8.0 | 27.4 | 0.00 | 0.00 | 0.00 | 70 | 1012.3 |
| 20260510075233 | 12 | 106 | 8.0 | 27.4 | 0.00 | 0.00 | 0.00 | 71 | 1012.3 |
| 20260510074235 | 11 | 37 | 19.3 | 32.2 | 0.00 | 0.00 | 0.00 | 72 | 1012.2 |
| 20260510073304 | 11 | 21 | 22.5 | 33.8 | 0.00 | 0.00 | 0.00 | 74 | 1012.1 |
| 20260510072243 | 11 | 82 | 17.7 | 27.4 | 0.00 | 0.00 | 0.00 | 75 | 1012.1 |
| 20260510071238 | 10 | 54 | 14.5 | 35.4 | 0.00 | 0.00 | 0.00 | 76 | 1012.0 |
| 20260510070257 | 10 | 53 | 17.7 | 30.6 | 0.00 | 0.00 | 0.00 | 76 | 1011.9 |
| 20260510065253 | 10 | 49 | 17.7 | 33.8 | 0.00 | 0.00 | 0.00 | 76 | 1011.9 |
| 20260510064247 | 10 | 53 | 20.9 | 35.4 | 0.00 | 0.00 | 0.00 | 76 | 1011.7 |
| 20260510063257 | 10 | 360 | 12.9 | 30.6 | 0.00 | 0.00 | 0.00 | 75 | 1011.6 |
| 20260510062246 | 10 | 42 | 22.5 | 33.8 | 0.00 | 0.00 | 0.00 | 75 | 1011.6 |
| 20260510061245 | 10 | 56 | 16.1 | 29.0 | 0.00 | 0.00 | 0.00 | 74 | 1011.6 |
| 20260510060241 | 10 | 19 | 12.9 | 22.5 | 0.00 | 0.00 | 0.00 | 74 | 1011.5 |
| 20260510055244 | 10 | 63 | 14.5 | 29.0 | 0.00 | 0.00 | 0.00 | 73 | 1011.5 |
| 20260510054239 | 10 | 45 | 14.5 | 30.6 | 0.00 | 0.00 | 0.00 | 73 | 1011.4 |
| 20260510053249 | 10 | 38 | 16.1 | 25.7 | 0.00 | 0.00 | 0.00 | 73 | 1011.4 |
| 20260510052244 | 10 | 51 | 19.3 | 27.4 | 0.00 | 0.00 | 0.00 | 73 | 1011.4 |
| 20260510051233 | 10 | 40 | 19.3 | 25.7 | 0.00 | 0.00 | 0.00 | 72 | 1011.4 |
| 20260510050249 | 10 | 24 | 11.3 | 30.6 | 0.00 | 0.00 | 0.00 | 72 | 1011.4 |
| 20260510045243 | 10 | 30 | 16.1 | 32.2 | 0.00 | 0.00 | 0.00 | 71 | 1011.4 |
| 20260510044236 | 10 | 62 | 14.5 | 33.8 | 0.00 | 0.00 | 0.00 | 70 | 1011.2 |
| 20260510043252 | 11 | 59 | 16.1 | 25.7 | 0.00 | 0.00 | 0.00 | 70 | 1011.3 |
| 20260510042244 | 11 | 37 | 16.1 | 30.6 | 0.00 | 0.00 | 0.00 | 69 | 1011.3 |
| 20260510041258 | 11 | 35 | 9.7 | 24.1 | 0.00 | 0.00 | 0.00 | 70 | 1011.2 |
| 20260510040247 | 11 | 27 | 11.3 | 30.6 | 0.00 | 0.00 | 0.00 | 70 | 1011.3 |
| 20260510035244 | 11 | 30 | 19.3 | 29.0 | 0.00 | 0.00 | 0.00 | 70 | 1011.3 |
| 20260510034257 | 11 | 40 | 16.1 | 25.7 | 0.00 | 0.00 | 0.00 | 70 | 1011.5 |
| 20260510033257 | 12 | 44 | 8.0 | 20.9 | 0.00 | 0.00 | 0.00 | 71 | 1011.6 |
| 20260510032307 | 12 | 51 | 12.9 | 30.6 | 0.00 | 0.00 | 0.00 | 71 | 1011.7 |
| 20260510031257 | 12 | 47 | 9.7 | 30.6 | 0.00 | 0.00 | 0.00 | 71 | 1011.7 |
| 20260510030248 | 12 | 38 | 17.7 | 25.7 | 0.00 | 0.00 | 0.00 | 71 | 1011.7 |
| 20260510025247 | 12 | 36 | 6.4 | 20.9 | 0.00 | 0.00 | 0.00 | 71 | 1011.7 |
| 20260510024243 | 12 | 59 | 14.5 | 24.1 | 0.00 | 0.00 | 0.00 | 71 | 1011.8 |
| 20260510023258 | 12 | 81 | 8.0 | 22.5 | 0.00 | 0.00 | 0.00 | 71 | 1011.8 |
| 20260510022246 | 12 | 53 | 12.9 | 19.3 | 0.00 | 0.00 | 0.00 | 72 | 1011.8 |
| 20260510021319 | 13 | 53 | 12.9 | 27.4 | 0.00 | 0.00 | 0.00 | 72 | 1012.0 |
| 20260510020247 | 13 | 49 | 4.8 | 20.9 | 0.00 | 0.00 | 0.00 | 73 | 1012.1 |
| 20260510015253 | 13 | 60 | 6.4 | 19.3 | 0.00 | 0.00 | 0.00 | 73 | 1012.1 |
| 20260510014307 | 13 | 46 | 11.3 | 17.7 | 0.00 | 0.00 | 0.00 | 74 | 1012.2 |
| 20260510013247 | 13 | 77 | 3.2 | 22.5 | 0.00 | 0.00 | 0.00 | 74 | 1012.3 |
| 20260510012306 | 13 | 46 | 8.0 | 22.5 | 0.00 | 0.00 | 0.00 | 74 | 1012.3 |
| 20260510011253 | 13 | 86 | 11.3 | 20.9 | 0.00 | 0.00 | 0.00 | 74 | 1012.5 |
| 20260510010247 | 13 | 46 | 9.7 | 19.3 | 0.00 | 0.00 | 0.00 | 73 | 1012.3 |
| 20260510005321 | 13 | 44 | 8.0 | 16.1 | 0.00 | 0.00 | 0.00 | 73 | 1012.3 |
| 20260510004250 | 13 | 71 | 8.0 | 17.7 | 0.00 | 0.00 | 0.00 | 73 | 1012.4 |
| 20260510003309 | 14 | 63 | 8.0 | 16.1 | 0.00 | 0.00 | 0.00 | 72 | 1012.4 |
| 20260510002258 | 14 | 49 | 11.3 | 20.9 | 0.00 | 0.00 | 0.00 | 71 | 1012.4 |
| 20260510001303 | 14 | 30 | 8.0 | 22.5 | 0.00 | 0.00 | 0.00 | 70 | 1012.6 |
| 20260510000244 | 14 | 38 | 8.0 | 24.1 | 0.00 | 0.00 | 0.00 | 70 | 1012.6 |
| 20260509235242 | 14 | 57 | 12.9 | 16.1 | 0.00 | 0.00 | 0.00 | 69 | 1012.6 |
| 20260509234256 | 15 | 44 | 8.0 | 20.9 | 0.00 | 0.00 | 0.00 | 69 | 1012.6 |
| 20260509233247 | 15 | 54 | 9.7 | 16.1 | 0.00 | 0.00 | 0.00 | 68 | 1012.6 |
| 20260509232244 | 15 | 70 | 9.7 | 16.1 | 0.00 | 0.00 | 0.00 | 68 | 1012.6 |
| 20260509231254 | 15 | 13 | 4.8 | 20.9 | 0.00 | 0.00 | 0.00 | 68 | 1012.6 |
| 20260509230244 | 15 | 90 | 8.0 | 16.1 | 0.00 | 0.00 | 0.00 | 67 | 1012.6 |
| 20260509225257 | 15 | 20 | 4.8 | 20.9 | 0.00 | 0.00 | 0.00 | 66 | 1012.6 |
| 20260509224251 | 15 | 76 | 6.4 | 14.5 | 0.00 | 0.00 | 0.00 | 66 | 1012.6 |
| 20260509223245 | 15 | 69 | 6.4 | 9.7 | 0.00 | 0.00 | 0.00 | 65 | 1012.7 |
| 20260509222306 | 15 | 32 | 1.6 | 11.3 | 0.00 | 0.00 | 0.00 | 66 | 1012.7 |
| 20260509221251 | 15 | 38 | 3.2 | 9.7 | 0.00 | 0.00 | 0.00 | 66 | 1012.7 |
| 20260509220242 | 15 | 42 | 4.8 | 8.0 | 0.00 | 0.00 | 0.00 | 66 | 1012.8 |
| 20260509215305 | 15 | 40 | 4.8 | 9.7 | 0.00 | 0.00 | 0.00 | 67 | 1012.8 |
| 20260509214259 | 15 | 69 | 4.8 | 9.7 | 0.00 | 0.00 | 0.00 | 67 | 1012.8 |
| 20260509213245 | 15 | 48 | 6.4 | 9.7 | 0.00 | 0.00 | 0.00 | 67 | 1012.7 |
| 20260509212300 | 15 | 51 | 4.8 | 12.9 | 0.00 | 0.00 | 0.00 | 67 | 1012.7 |
| 20260509211237 | 15 | 61 | 6.4 | 14.5 | 0.00 | 0.00 | 0.00 | 67 | 1012.7 |
| 20260509210252 | 15 | 50 | 3.2 | 9.7 | 0.00 | 0.00 | 0.00 | 67 | 1012.7 |
| 20260509205257 | 15 | 50 | 1.6 | 8.0 | 0.00 | 0.00 | 0.00 | 68 | 1012.7 |
| 20260509204256 | 15 | 51 | 3.2 | 11.3 | 0.00 | 0.00 | 0.00 | 68 | 1012.7 |
| 20260509203250 | 15 | 49 | 9.7 | 14.5 | 0.00 | 0.00 | 0.00 | 69 | 1012.6 |
| 20260509202247 | 15 | 47 | 4.8 | 9.7 | 0.00 | 0.00 | 0.00 | 70 | 1012.6 |
| 20260509201311 | 15 | 94 | 1.6 | 4.8 | 0.00 | 0.00 | 0.00 | 70 | 1012.4 |
| 20260509200247 | 16 | 94 | 0.0 | 1.6 | 0.00 | 0.00 | 0.00 | 69 | 1012.2 |
| 20260509195243 | 16 | 94 | 3.2 | 4.8 | 0.00 | 0.00 | 0.00 | 68 | 1012.2 |
| 20260509194256 | 16 | 94 | 0.0 | 0.0 | 0.00 | 0.00 | 0.00 | 68 | 1012.3 |
| 20260509193247 | 16 | 94 | 0.0 | 3.2 | 0.00 | 0.00 | 0.00 | 69 | 1012.3 |
| 20260509192242 | 16 | 94 | 0.0 | 1.6 | 0.00 | 0.00 | 0.00 | 68 | 1012.3 |
| 20260509191241 | 16 | 94 | 0.0 | 1.6 | 0.00 | 0.00 | 0.00 | 67 | 1012.3 |
| 20260509190311 | 16 | 94 | 3.2 | 6.4 | 0.00 | 0.00 | 0.00 | 64 | 1012.2 |
| 20260509185300 | 16 | 94 | 3.2 | 4.8 | 0.00 | 0.00 | 0.00 | 65 | 1012.2 |
| 20260509184256 | 16 | 94 | 0.0 | 1.6 | 0.00 | 0.00 | 0.00 | 66 | 1012.3 |
| 20260509183251 | 16 | 94 | 3.2 | 3.2 | 0.00 | 0.00 | 0.00 | 64 | 1012.2 |
| 20260509182251 | 17 | 94 | 1.6 | 3.2 | 0.00 | 0.00 | 0.00 | 66 | 1012.2 |
| 20260509181247 | 17 | 94 | 0.0 | 1.6 | 0.00 | 0.00 | 0.00 | 65 | 1012.2 |
| 20260509180245 | 17 | 94 | 0.0 | 3.2 | 0.00 | 0.00 | 0.00 | 61 | 1012.1 |
| 20260509175245 | 17 | 94 | 0.0 | 1.6 | 0.00 | 0.00 | 0.00 | 59 | 1012.1 |
| 20260509174258 | 17 | 94 | 0.0 | 3.2 | 0.00 | 0.00 | 0.00 | 58 | 1012.2 |
| 20260509173255 | 18 | 94 | 0.0 | 8.0 | 0.00 | 0.00 | 0.00 | 56 | 1012.2 |
| 20260509172246 | 18 | 55 | 0.0 | 4.8 | 0.00 | 0.00 | 0.00 | 56 | 1012.2 |
| 20260509171303 | 18 | 55 | 1.6 | 6.4 | 0.00 | 0.00 | 0.00 | 55 | 1012.2 |
| 20260509170246 | 18 | 55 | 1.6 | 8.0 | 0.00 | 0.00 | 0.00 | 54 | 1012.2 |
| 20260509165319 | 18 | 90 | 3.2 | 8.0 | 0.00 | 0.00 | 0.00 | 54 | 1012.2 |
| 20260509164246 | 18 | 51 | 3.2 | 8.0 | 0.00 | 0.00 | 0.00 | 54 | 1012.2 |
| 20260509163306 | 18 | 94 | 3.2 | 16.1 | 0.00 | 0.00 | 0.00 | 53 | 1012.2 |
| 20260509162242 | 18 | 34 | 8.0 | 16.1 | 0.00 | 0.00 | 0.00 | 53 | 1012.2 |
| 20260509161241 | 18 | 63 | 8.0 | 20.9 | 0.00 | 0.00 | 0.00 | 52 | 1012.2 |
| 20260509160242 | 18 | 123 | 3.2 | 8.0 | 0.00 | 0.00 | 0.00 | 54 | 1012.3 |
| 20260509155250 | 18 | 165 | 3.2 | 9.7 | 0.00 | 0.00 | 0.00 | 53 | 1012.3 |
| 20260509154250 | 18 | 59 | 4.8 | 6.4 | 0.00 | 0.00 | 0.00 | 55 | 1012.4 |